Terminal Aerodrome Forecast
Issued by NWS Cleveland, OH

Home | Current Version | Previous Version | Graphics & Text | Print | Product List | Glossary On
Versions: 1 2 3 4 5 6 7 8 9 10 11 12 13 14 15 16 17 18 19
000
FTUS41 KCLE 201742
TAFMFD
TAF
KMFD 201742Z 2018/2118 08008KT P6SM VCSH SCT025 BKN035
     FM210000 10010KT P6SM BKN060
     FM210600 17010KT P6SM VCSH OVC060
     FM211000 18012KT 5SM -SHRA BR OVC020
     FM211500 18015G22KT 5SM -RA BR OVC020=

USA.gov is the U.S. government's official web portal to all federal, state and local government web resources and services.